| time (UTC) | temp F | wind direction | speed MPH | gust MPH | rain 1hr in | rain 24hr in | rain mn in | humidity % | barometer mb |
| 20260904111505 | 64 | 213 | 0.0 | 4.0 | 0.17 | 0.80 | 0.80 | 99 | 1003.1 |
| 20260904111004 | 64 | 170 | 0.0 | 3.0 | 0.18 | 0.80 | 0.80 | 99 | 1003.0 |
| 20260904110505 | 64 | 181 | 0.0 | 3.0 | 0.20 | 0.80 | 0.80 | 99 | 1002.5 |
| 20260904110218 | 64 | 179 | 0.0 | 3.0 | 0.21 | 0.80 | 0.80 | 99 | 1002.5 |
| 20260904105504 | 64 | 175 | 0.0 | 4.0 | 0.23 | 0.80 | 0.79 | 99 | 1002.9 |
| 20260904105005 | 64 | 171 | 1.0 | 4.0 | 0.24 | 0.79 | 0.78 | 99 | 1002.3 |
| 20260904104505 | 64 | 164 | 1.0 | 4.0 | 0.24 | 0.77 | 0.76 | 99 | 1002.8 |
| 20260904104218 | 64 | 182 | 1.0 | 5.0 | 0.23 | 0.75 | 0.75 | 99 | 1003.1 |
| 20260904103505 | 64 | 236 | 1.0 | 5.0 | 0.22 | 0.73 | 0.72 | 99 | 1003.2 |
| 20260904103004 | 64 | 175 | 1.0 | 4.0 | 0.22 | 0.71 | 0.70 | 99 | 1003.2 |
| 20260904102506 | 64 | 181 | 1.0 | 4.0 | 0.21 | 0.69 | 0.69 | 99 | 1003.1 |
| 20260904102004 | 64 | 231 | 0.0 | 4.0 | 0.20 | 0.67 | 0.66 | 99 | 1002.7 |
| 20260904101503 | 64 | 240 | 0.0 | 4.0 | 0.18 | 0.64 | 0.63 | 99 | 1003.0 |
| 20260904101005 | 64 | 248 | 0.0 | 1.0 | 0.17 | 0.62 | 0.61 | 99 | 1003.1 |
| 20260904100504 | 64 | 217 | 0.0 | 4.0 | 0.16 | 0.60 | 0.59 | 99 | 1002.7 |
| 20260904100003 | 64 | 183 | 1.0 | 4.0 | 0.15 | 0.59 | 0.58 | 99 | 1002.5 |
| 20260904095503 | 64 | 183 | 1.0 | 4.0 | 0.15 | 0.57 | 0.56 | 99 | 1002.6 |
| 20260904095003 | 64 | 249 | 0.0 | 4.0 | 0.13 | 0.55 | 0.54 | 99 | 1003.1 |
| 20260904094503 | 64 | 202 | 1.0 | 4.0 | 0.11 | 0.53 | 0.52 | 99 | 1003.0 |
| 20260904094217 | 64 | 184 | 1.0 | 4.0 | 0.11 | 0.52 | 0.52 | 99 | 1003.0 |
| 20260904093503 | 64 | 181 | 0.0 | 4.0 | 0.11 | 0.50 | 0.50 | 99 | 1002.9 |
| 20260904093003 | 64 | 229 | 0.0 | 5.0 | 0.10 | 0.50 | 0.49 | 99 | 1002.9 |
| 20260904092503 | 63 | 226 | 1.0 | 5.0 | 0.09 | 0.49 | 0.48 | 99 | 1003.0 |
| 20260904092005 | 63 | 194 | 0.0 | 4.0 | 0.08 | 0.48 | 0.46 | 99 | 1003.3 |
| 20260904091503 | 63 | 191 | 0.0 | 4.0 | 0.07 | 0.50 | 0.45 | 99 | 1003.6 |
| 20260904091004 | 63 | 210 | 1.0 | 4.0 | 0.06 | 0.52 | 0.44 | 99 | 1003.9 |
| 20260904090716 | 63 | 202 | 1.0 | 4.0 | 0.06 | 0.51 | 0.44 | 99 | 1003.9 |
| 20260904090004 | 63 | 222 | 1.0 | 4.0 | 0.05 | 0.54 | 0.43 | 99 | 1003.9 |
| 20260904085504 | 63 | 224 | 1.0 | 4.0 | 0.04 | 0.54 | 0.42 | 99 | 1004.3 |
| 20260904085005 | 63 | 216 | 1.0 | 4.0 | 0.04 | 0.55 | 0.41 | 99 | 1004.3 |
| 20260904084505 | 63 | 211 | 1.0 | 4.0 | 0.04 | 0.55 | 0.41 | 99 | 1004.3 |
| 20260904065503 | 63 | 197 | 2.0 | 12.0 | 0.05 | 0.55 | 0.34 | 99 | 1005.1 |
| 20260904065004 | 63 | 217 | 2.0 | 8.0 | 0.05 | 0.55 | 0.34 | 99 | 1005.5 |
| 20260904064504 | 63 | 204 | 1.0 | 10.0 | 0.05 | 0.55 | 0.33 | 99 | 1005.4 |
| 20260904064005 | 63 | 237 | 2.0 | 12.0 | 0.05 | 0.56 | 0.33 | 99 | 1005.1 |
| 20260904063505 | 63 | 251 | 2.0 | 12.0 | 0.05 | 0.56 | 0.32 | 99 | 1005.4 |
| 20260904063007 | 63 | 229 | 1.0 | 8.0 | 0.05 | 0.57 | 0.32 | 99 | 1005.4 |
| 20260904062505 | 63 | 261 | 1.0 | 8.0 | 0.05 | 0.57 | 0.31 | 99 | 1005.3 |
| 20260904062003 | 63 | 282 | 2.0 | 18.0 | 0.04 | 0.56 | 0.31 | 99 | 1005.4 |